Regional Weather Roundup
Issued by NWS

Home | Current Version | Previous Version | Text Only | Print | Product List | Glossary Off
Versions: 1 2 3 4 5 6 7 8 9 10 11 12 13 14 15 16 17 18 19 20 21 22 23 24 25 26 27 28 29 30 31 32 33 34 35 36 37 38 39 40 41 42 43 44 45 46 47 48 49 50

000
ASUS45 KSLC 010110
RWRUT

UTAH REGIONAL WEATHER ROUNDUP
NATIONAL WEATHER SERVICE SALT LAKE CITY UT
700 PM MDT MON AUG 31 2015

UTZ001>011-023>025-010200-

NORTHERN UTAH

CITY           SKY/WX    TMP DP  RH WIND       PRES   REMARKS
BRIGHAM CITY   SUNNY     84  28  13 S3        29.97F
HILL AFB       SUNNY     82  38  20 SW2       30.01F
LOGAN          SUNNY     83  33  16 S6        29.98F
OGDEN            N/A     84  36  18 CALM      29.98F
PROVO AIRPORT  MOSUNNY   82  46  28 VRB6      29.97F
SALT LAKE CITY MOSUNNY   86  41  20 N8        29.96F
VERNAL         MOCLDY    78  40  25 SE3       30.09R
WENDOVER       SUNNY     84  28  13 CALM      29.96S
HEBER CITY     SUNNY     79  37  22 SW5       30.05F
WEST JORDAN    SUNNY     82  41  23 N6        30.00F

$$

UTZ012>022-026-027-010200-

SOUTHERN/CENTRAL UTAH

CITY           SKY/WX    TMP DP  RH WIND       PRES   REMARKS
BLANDING       CLOUDY    77  47  34 SW5       30.21F
BRYCE CANYON   PTSUNNY   71  47  42 S13       30.24S
CEDAR CITY     SUNNY     82  35  18 SW16G22   30.06F
DELTA            N/A     88  29  12 W6        29.98S
HANKSVILLE     CLOUDY    81  45  28 SE10      30.03S
MILFORD        SUNNY     87  34  15 SW18      29.99S
MOAB/CYNLANDS  CLEAR     85  44  23 SW9       30.00F
PRICE          PTCLDY    73  52  47 NE9       30.12F
ST GEORGE      CLEAR     97  46  17 W7        29.85F HX  93
KANAB          PTSUNNY   79  55  44 S9        30.10F

$$

REGIONAL REPORTS     COLORADO/ARIZONA

CITY           SKY/WX    TMP DP  RH WIND       PRES   REMARKS
CRAIG, CO      LGT RAIN  60  51  72 E7        30.24F
GRAND JUNCTION MOCLDY    80  52  37 CALM      30.05S
RIFLE          PTCLDY    77  52  41 CALM      30.13S
MONTROSE       CLOUDY    76  51  41 CALM      30.15F
CORTEZ         CLEAR     77  45  32 W6        30.14F
PAGE, AZ       CLOUDY    83  53  35 S9        30.01F
GRAND CANYON   MOSUNNY   70  51  51 SE8       30.21
KINGMAN        SUNNY     93  47  20 W14G23    29.92F
FLAGSTAFF      PTSUNNY   65  52  62 E10       30.28S

$$

REGIONAL REPORTS    NEVADA/IDAHO/WYOMING

CITY           SKY/WX    TMP DP  RH WIND       PRES   REMARKS
LAS VEGAS, NV  MOSUNNY  100  40  12 S8G21     29.73F HX  95
ELY            PTSUNNY   83  29  14 VRB7      30.07S
ELKO           MOSUNNY   85  26  11 NW10      29.96F
POCATELLO, ID  SUNNY     79  27  14 SW3       30.00F
BURLEY         MOSUNNY   77  38  24 W3        29.96F
EVANSTON, WY   SUNNY     74  29  19 W17       30.17S
ROCK SPRINGS   PTCLDY    72  38  29 SW14      30.15R
KEMMERER       CLEAR     72  23  16 W14G23    30.18S

$$


USA.gov is the U.S. government's official web portal to all federal, state and local government web resources and services.